When you browse on this site, cookies collect data to enhance your experience and personalize the content and advertising you see.
Visit our Privacy Policy to learn more. By continuing to use the site, you agree to this use of cookies and data.
  • En España
  • Lista de países
  • Para 7 días
  • Temperatura del agua
  • El tiempo en el mapa
  • Informadores
  • user-avatar
    Iniciar sesión

    Tiempo cada hora San Miguel de Tucumán

    Hoy, 26 Enero, Domingo

    Tiempo Temperatura Precipitaciones Viento Presión Humedad
    00:00 +28°C° 0 mm 1 mps 720 mmHg 61%
    01:00 +27°C° 0 mm 1 mps 719 mmHg 61%
    02:00 +27°C° 0 mm 1 mps 719 mmHg 60%
    03:00 +26°C° 0 mm 1 mps 719 mmHg 63%
    04:00 +26°C° 0 mm 1 mps 718 mmHg 66%
    05:00 +25°C° 0 mm 1 mps 718 mmHg 69%
    06:00 +26°C° 0 mm 1 mps 718 mmHg 65%
    07:00 +28°C° 0 mm 1 mps 719 mmHg 62%
    08:00 +28°C° 0 mm 0 mps 719 mmHg 58%
    09:00 +32°C° 0 mm 1 mps 719 mmHg 53%
    10:00 +34°C° 0 mm 1 mps 719 mmHg 47%
    11:00 +37°C° 0 mm 2 mps 719 mmHg 42%
    12:00 +37°C° 0.3 mm 2 mps 719 mmHg 40%
    13:00 +38°C° 0.3 mm 2 mps 718 mmHg 39%
    14:00 +39°C° 0.3 mm 2 mps 718 mmHg 37%
    15:00 +38°C° 0.3 mm 2 mps 717 mmHg 40%
    16:00 +37°C° 0.3 mm 2 mps 717 mmHg 42%
    17:00 +35°C° 0.3 mm 1 mps 716 mmHg 45%
    18:00 +33°C° 0.1 mm 1 mps 716 mmHg 48%
    19:00 +31°C° 0.1 mm 1 mps 717 mmHg 52%
    20:00 +30°C° 0.1 mm 1 mps 717 mmHg 55%
    21:00 +29°C° 0.3 mm 2 mps 718 mmHg 59%
    22:00 +28°C° 0.3 mm 3 mps 719 mmHg 63%
    23:00 +28°C° 0.3 mm 4 mps 720 mmHg 67%

    Mañana, 27 Enero, Lunes

    Tiempo Temperatura Precipitaciones Viento Presión Humedad
    00:00 +26°C° 1.3 mm 3 mps 720 mmHg 74%
    01:00 +25°C° 1.3 mm 3 mps 720 mmHg 81%
    02:00 +24°C° 1.3 mm 3 mps 720 mmHg 88%
    03:00 +24°C° 0.7 mm 3 mps 720 mmHg 86%
    04:00 +24°C° 0.7 mm 3 mps 720 mmHg 84%
    05:00 +24°C° 0.7 mm 3 mps 720 mmHg 82%
    06:00 +25°C° 0 mm 3 mps 721 mmHg 78%
    07:00 +26°C° 0 mm 3 mps 721 mmHg 73%
    08:00 +27°C° 0 mm 3 mps 722 mmHg 68%
    09:00 +28°C° 0 mm 3 mps 722 mmHg 63%
    10:00 +30°C° 0 mm 3 mps 722 mmHg 57%
    11:00 +31°C° 0 mm 3 mps 722 mmHg 52%
    12:00 +31°C° 0.1 mm 3 mps 722 mmHg 51%
    13:00 +31°C° 0.1 mm 3 mps 721 mmHg 51%
    14:00 +31°C° 0.1 mm 3 mps 721 mmHg 51%
    15:00 +31°C° 0.1 mm 3 mps 720 mmHg 51%
    16:00 +31°C° 0.1 mm 3 mps 720 mmHg 50%
    17:00 +31°C° 0.1 mm 3 mps 719 mmHg 50%
    18:00 +29°C° 0 mm 2 mps 719 mmHg 55%
    19:00 +27°C° 0 mm 2 mps 719 mmHg 61%
    20:00 +25°C° 0 mm 1 mps 719 mmHg 66%
    21:00 +25°C° 0 mm 1 mps 719 mmHg 65%
    22:00 +25°C° 0 mm 1 mps 720 mmHg 64%
    23:00 +25°C° 0 mm 2 mps 720 mmHg 63%

    Pasado mañana, 28 Enero, Martes

    Tiempo Temperatura Precipitaciones Viento Presión Humedad
    00:00 +24°C° 0 mm 2 mps 719 mmHg 63%
    01:00 +24°C° 0 mm 2 mps 718 mmHg 63%
    02:00 +23°C° 0 mm 2 mps 718 mmHg 63%
    03:00 +23°C° 0 mm 2 mps 717 mmHg 64%
    04:00 +23°C° 0 mm 1 mps 717 mmHg 64%
    05:00 +23°C° 0 mm 1 mps 717 mmHg 65%
    06:00 +24°C° 0 mm 1 mps 717 mmHg 62%
    07:00 +26°C° 0 mm 1 mps 717 mmHg 59%
    08:00 +28°C° 0 mm 1 mps 717 mmHg 56%
    09:00 +30°C° 0 mm 1 mps 717 mmHg 51%
    10:00 +32°C° 0 mm 2 mps 717 mmHg 46%
    11:00 +35°C° 0 mm 2 mps 717 mmHg 41%
    12:00 +36°C° 0 mm 3 mps 716 mmHg 40%
    13:00 +36°C° 0 mm 3 mps 715 mmHg 39%
    14:00 +37°C° 0 mm 3 mps 714 mmHg 38%
    15:00 +37°C° 0.1 mm 3 mps 714 mmHg 40%
    16:00 +37°C° 0.1 mm 3 mps 713 mmHg 42%
    17:00 +36°C° 0.1 mm 2 mps 712 mmHg 44%
    18:00 +34°C° 0.2 mm 2 mps 712 mmHg 49%
    19:00 +32°C° 0.2 mm 2 mps 712 mmHg 54%
    20:00 +30°C° 0.2 mm 2 mps 712 mmHg 59%
    21:00 +29°C° 0 mm 2 mps 713 mmHg 60%
    22:00 +29°C° 0 mm 2 mps 713 mmHg 60%
    23:00 +28°C° 0 mm 2 mps 714 mmHg 60%

    29 Enero, Miércoles

    Tiempo Temperatura Precipitaciones Viento Presión Humedad
    00:00 +28°C° 0 mm 2 mps 713 mmHg 61%
    01:00 +27°C° 0 mm 2 mps 713 mmHg 62%
    02:00 +27°C° 0 mm 1 mps 712 mmHg 62%
    03:00 +26°C° 0 mm 1 mps 712 mmHg 63%
    04:00 +26°C° 0 mm 1 mps 712 mmHg 64%
    05:00 +25°C° 0 mm 1 mps 712 mmHg 66%
    06:00 +26°C° 0 mm 2 mps 713 mmHg 64%
    07:00 +27°C° 0 mm 3 mps 714 mmHg 62%
    08:00 +28°C° 0 mm 3 mps 714 mmHg 61%
    09:00 +29°C° 0.2 mm 4 mps 715 mmHg 60%
    10:00 +30°C° 0.2 mm 5 mps 716 mmHg 59%
    11:00 +32°C° 0.2 mm 5 mps 717 mmHg 58%
    12:00 +32°C° 0.3 mm 5 mps 717 mmHg 59%
    13:00 +30°C° 0.3 mm 5 mps 717 mmHg 60%
    14:00 +30°C° 0.3 mm 4 mps 717 mmHg 60%
    15:00 +30°C° 0.1 mm 4 mps 716 mmHg 61%
    16:00 +29°C° 0.1 mm 4 mps 716 mmHg 62%
    17:00 +29°C° 0.1 mm 4 mps 716 mmHg 63%
    18:00 +28°C° 0.1 mm 3 mps 716 mmHg 66%
    19:00 +27°C° 0.1 mm 2 mps 717 mmHg 70%
    20:00 +26°C° 0.1 mm 1 mps 718 mmHg 74%
    21:00 +25°C° 1 mm 1 mps 718 mmHg 77%
    22:00 +25°C° 1 mm 1 mps 719 mmHg 81%
    23:00 +24°C° 1 mm 1 mps 720 mmHg 84%

    30 Enero, Jueves

    Tiempo Temperatura Precipitaciones Viento Presión Humedad
    00:00 +23°C° 0.7 mm 2 mps 720 mmHg 86%
    01:00 +23°C° 0.7 mm 2 mps 719 mmHg 87%
    02:00 +21°C° 0.7 mm 3 mps 719 mmHg 88%
    03:00 +21°C° 0.2 mm 2 mps 720 mmHg 86%
    04:00 +20°C° 0.2 mm 2 mps 720 mmHg 84%
    05:00 +20°C° 0.2 mm 2 mps 720 mmHg 82%
    06:00 +21°C° 0 mm 2 mps 721 mmHg 76%
    07:00 +24°C° 0 mm 2 mps 721 mmHg 70%
    08:00 +25°C° 0 mm 1 mps 722 mmHg 63%
    09:00 +27°C° 0 mm 1 mps 722 mmHg 55%
    10:00 +29°C° 0 mm 2 mps 722 mmHg 46%
    11:00 +31°C° 0 mm 2 mps 722 mmHg 38%
    12:00 +32°C° 0 mm 2 mps 722 mmHg 35%
    13:00 +34°C° 0 mm 2 mps 721 mmHg 33%
    14:00 +35°C° 0 mm 2 mps 720 mmHg 30%
    15:00 +35°C° 0 mm 2 mps 720 mmHg 32%
    16:00 +35°C° 0 mm 2 mps 719 mmHg 33%
    17:00 +34°C° 0 mm 2 mps 718 mmHg 35%
    18:00 +31°C° 0 mm 2 mps 718 mmHg 40%
    19:00 +29°C° 0 mm 2 mps 719 mmHg 45%
    20:00 +27°C° 0 mm 2 mps 719 mmHg 50%
    21:00 +26°C° 0 mm 2 mps 719 mmHg 51%
    22:00 +25°C° 0 mm 1 mps 719 mmHg 52%
    23:00 +24°C° 0 mm 1 mps 720 mmHg 53%

    31 Enero, Viernes

    Tiempo Temperatura Precipitaciones Viento Presión Humedad
    00:00 +24°C° 0 mm 1 mps 719 mmHg 55%
    01:00 +23°C° 0 mm 1 mps 719 mmHg 57%
    02:00 +22°C° 0 mm 1 mps 719 mmHg 59%
    03:00 +22°C° 0 mm 1 mps 719 mmHg 61%
    04:00 +22°C° 0 mm 1 mps 719 mmHg 63%
    05:00 +22°C° 0 mm 1 mps 719 mmHg 64%
    06:00 +23°C° 0 mm 1 mps 720 mmHg 61%
    07:00 +25°C° 0 mm 1 mps 720 mmHg 57%
    08:00 +27°C° 0 mm 1 mps 720 mmHg 53%
    09:00 +29°C° 0 mm 1 mps 721 mmHg 48%
    10:00 +31°C° 0 mm 1 mps 721 mmHg 42%
    11:00 +34°C° 0 mm 2 mps 721 mmHg 36%
    12:00 +35°C° 0 mm 2 mps 720 mmHg 33%
    13:00 +37°C° 0 mm 2 mps 720 mmHg 31%
    14:00 +38°C° 0 mm 2 mps 720 mmHg 29%
    15:00 +37°C° 0 mm 2 mps 719 mmHg 32%
    16:00 +36°C° 0 mm 2 mps 719 mmHg 34%
    17:00 +36°C° 0 mm 2 mps 718 mmHg 37%
    18:00 +32°C° 0 mm 2 mps 718 mmHg 42%
    19:00 +30°C° 0 mm 2 mps 719 mmHg 46%
    20:00 +28°C° 0 mm 2 mps 719 mmHg 51%
    21:00 +28°C° 0 mm 2 mps 719 mmHg 52%
    22:00 +27°C° 0 mm 2 mps 720 mmHg 52%
    23:00 +26°C° 0 mm 2 mps 720 mmHg 53%
    Mostrar más